Starlink 31014

operational
NORAD ID: 58538 Int'l Des: 2023-192 Owner: SPXS Country: US Constellation: starlink
LEOCIRCULAR

Starlink 31014について

説明を読み込み中...

リアルタイム位置

3D地球を読み込み中...

次回通過

高度履歴

Altitude vs Time

uPlot chart will show altitude changes over time

軌道要素

1 58538U 23192H 26036.48471567 -.00000253 00000-0 35882-5 0 9997
2 58538 53.1587 212.4005 0001103 81.3447 278.7678 15.30188498121057
Epoch: Feb 5, 2026 • Age: 8 hours

現在のステータス

高度 480.4 km
速度 7.63 km/s
衛星直下点 50.30°N, 108.01°W
打ち上げ日 Dec 8, 2023
運用期間 2.1 years
タイプ internet

技術仕様

分類 Payload
質量 730.00 kg
乾燥質量 700.00 kg
総質量 730.00 kg
長さ 0.30 m
直径 4.10 m
スパン 29.00 m
形状 Box + pan
製造者 SPXS
バスタイプ Starlink V2M
フェーズステータス In Orbit
所有者/国 SPXS/US

大規模コンステレーション

Loading constellations...